Weather History for KLJF - October, 2012

Change the Weather History Date:

Wednesday, October 24, 2012

  Actual Average (WUND) Record (WUND)
Temperature  
Mean Temperature 50 °F -  
Max Temperature 57 °F - - (-1)
Min Temperature 42 °F - - (-1)
Degree Days  
Heating Degree Days 14    
Moisture  
Dew Point 49 °F    
Average Humidity 97    
Maximum Humidity 100    
Minimum Humidity 87    
Precipitation  
Precipitation 0.00 in - - ()
Sea Level Pressure  
Sea Level Pressure 29.84 in    
Wind  
Wind Speed 7 mph (NNW)    
Max Wind Speed 20 mph    
Max Gust Speed 24 mph    
Visibility 7 miles    
Events Rain    
Averages and records for this station are not official NWS values.
T = Trace of Precipitation, MM = Missing Value Source: NWS Daily Summary

Daily Weather History Graph

Daily Weather History Graph

Search for Another Location

Airport or City:

Trip Planner

Search our weather history database for the weather conditions in past years. The results will help you decide how hot, cold, wet, or windy it might be!

Date:

Astronomy

Oct. 24, 2012 Rise Set
Actual Time 7:46 AM CDT 6:17 PM CDT
Civil Twilight 7:16 AM CDT 6:47 PM CDT
Nautical Twilight 6:41 AM CDT 7:21 PM CDT
Astronomical Twilight 6:07 AM CDT 7:55 PM CDT
Moon 3:44 PM CDT (10/24) 2:29 AM CDT (10/24)
Length of Visible Light 11h 30m
Length of Day
10h 30m
Waxing Gibbous, 76% of the Moon is Illuminated
Oct 24
Waxing Gibbous
Oct 29
Full
Nov 6
Last Quarter
Nov 13
New
Nov 20
First Quarter

Hourly Weather History & Observations

Time (CDT) Temp. Windchill Dew Point Humidity Pressure Visibility Wind Dir Wind Speed Gust Speed Precip Events Conditions
12:13 AM 57.2 °F - 57.2 °F 100% 29.79 in 4.0 mi Calm Calm - N/A   Mist
12:33 AM 57.2 °F - 57.2 °F 100% 29.79 in 4.0 mi Calm Calm - N/A   Mist
12:53 AM 57.2 °F - 57.2 °F 100% 29.80 in 5.0 mi Calm Calm - N/A   Overcast
1:13 AM 57.2 °F - 57.2 °F 100% 29.81 in 5.0 mi WSW 4.6 mph - N/A   Overcast
1:33 AM 57.2 °F - 57.2 °F 100% 29.82 in 5.0 mi WSW 3.5 mph - N/A   Overcast
1:53 AM 55.4 °F - 55.4 °F 100% 29.80 in 4.0 mi Calm Calm - N/A   Mist
2:13 AM 55.4 °F - 55.4 °F 100% 29.81 in 4.0 mi West 4.6 mph - N/A   Scattered Clouds
2:33 AM 55.4 °F - 55.4 °F 100% 29.82 in 4.0 mi West 4.6 mph - N/A   Mist
2:53 AM 55.4 °F - 55.4 °F 100% 29.82 in 4.0 mi Calm Calm - N/A   Overcast
3:13 AM 55.4 °F - 55.4 °F 100% 29.81 in 4.0 mi NW 4.6 mph - N/A   Overcast
3:33 AM 55.4 °F - 55.4 °F 100% 29.82 in 4.0 mi WNW 9.2 mph - N/A   Overcast
3:53 AM 55.4 °F - 55.4 °F 100% 29.82 in 4.0 mi NW 10.4 mph - N/A   Mostly Cloudy
4:13 AM 53.6 °F - 53.6 °F 100% 29.82 in 5.0 mi NW 6.9 mph - N/A   Scattered Clouds
4:33 AM 53.6 °F - 53.6 °F 100% 29.82 in 7.0 mi NW 9.2 mph - N/A   Scattered Clouds
4:53 AM 51.8 °F - 51.8 °F 100% 29.82 in 7.0 mi NNW 15.0 mph - N/A   Mostly Cloudy
5:13 AM 51.8 °F - 51.8 °F 100% 29.83 in 7.0 mi NNW 10.4 mph - N/A   Mostly Cloudy
5:33 AM 51.8 °F - 51.8 °F 100% 29.84 in 7.0 mi NW 9.2 mph - N/A   Overcast
5:53 AM 51.8 °F - 51.8 °F 100% 29.85 in 7.0 mi NW 4.6 mph - N/A   Overcast
6:13 AM 51.8 °F - 51.8 °F 100% 29.86 in 7.0 mi NW 8.1 mph - N/A   Overcast
6:33 AM 51.8 °F - 51.8 °F 100% 29.86 in 5.0 mi NW 3.5 mph - N/A   Overcast
6:53 AM 51.8 °F - 51.8 °F 100% 29.86 in 5.0 mi NNW 5.8 mph - N/A   Overcast
7:13 AM 51.8 °F - 51.8 °F 100% 29.87 in 5.0 mi NW 8.1 mph - N/A   Overcast
7:33 AM 50.0 °F - 50.0 °F 100% 29.88 in 5.0 mi NW 9.2 mph - N/A   Overcast
7:53 AM 50.0 °F - 50.0 °F 100% 29.88 in 7.0 mi NW 13.8 mph - N/A   Overcast
8:13 AM 48.2 °F - 48.2 °F 100% 29.88 in 5.0 mi NNW 11.5 mph 16.1 mph N/A   Overcast
8:33 AM 48.2 °F - 48.2 °F 100% 29.89 in 3.0 mi NNW 12.7 mph - N/A   Overcast
8:53 AM 48.2 °F - 48.2 °F 100% 29.89 in 3.0 mi NNW 10.4 mph - N/A   Overcast
9:13 AM 48.2 °F - 48.2 °F 100% 29.88 in 5.0 mi NNW 9.2 mph - N/A   Overcast
9:33 AM 50.0 °F - 50.0 °F 100% 29.87 in 5.0 mi North 8.1 mph - N/A   Overcast
9:53 AM 50.0 °F - 48.2 °F 94% 29.87 in 5.0 mi North 5.8 mph 9.2 mph N/A   Overcast
10:13 AM 50.0 °F - 48.2 °F 94% 29.86 in 4.0 mi North 8.1 mph - N/A   Overcast
10:33 AM 50.0 °F - 48.2 °F 94% 29.86 in 5.0 mi North 10.4 mph - N/A   Overcast
10:53 AM 50.0 °F - 48.2 °F 94% 29.85 in 5.0 mi North 10.4 mph - N/A   Overcast
11:13 AM 50.0 °F - 50.0 °F 100% 29.86 in 5.0 mi NNW 8.1 mph - N/A   Overcast
11:33 AM 50.0 °F - 48.2 °F 94% 29.87 in 5.0 mi North 6.9 mph - N/A   Overcast
11:52 AM 50.0 °F - 48.2 °F 94% 29.86 in 5.0 mi North 8.1 mph - N/A   Overcast
12:13 PM 50.0 °F - 48.2 °F 94% 29.85 in 7.0 mi NNW 13.8 mph - N/A   Overcast
12:20 PM 50.0 °F - 48.2 °F 94% 29.86 in 7.0 mi NNW 10.4 mph - N/A   Overcast
12:53 PM 48.2 °F - 48.2 °F 100% 29.85 in 7.0 mi NNW 11.5 mph - N/A   Overcast
1:13 PM 48.2 °F - 48.2 °F 100% 29.85 in 7.0 mi North 9.2 mph - N/A   Overcast
1:33 PM 48.2 °F - 48.2 °F 100% 29.84 in 7.0 mi NNW 10.4 mph - N/A   Overcast
1:53 PM 48.2 °F - 48.2 °F 100% 29.84 in 7.0 mi North 10.4 mph - N/A   Overcast
2:13 PM 48.2 °F - 48.2 °F 100% 29.83 in 7.0 mi NNW 8.1 mph - N/A   Overcast
2:33 PM 50.0 °F - 48.2 °F 94% 29.82 in 10.0 mi North 6.9 mph - N/A   Overcast
2:52 PM 50.0 °F - 48.2 °F 94% 29.82 in 10.0 mi NNW 9.2 mph - N/A   Overcast
3:13 PM 50.0 °F - 48.2 °F 94% 29.82 in 10.0 mi NNW 8.1 mph - N/A   Light Drizzle
3:33 PM 50.0 °F - 48.2 °F 94% 29.81 in 10.0 mi NNW 11.5 mph 17.3 mph N/A   Light Drizzle
4:13 PM 50.0 °F - 48.2 °F 94% 29.81 in 10.0 mi NNW 13.8 mph - N/A Rain Light Rain
4:33 PM 50.0 °F - 48.2 °F 94% 29.81 in 7.0 mi NNW 15.0 mph - N/A Rain Light Rain
4:53 PM 48.2 °F - 46.4 °F 93% 29.81 in 7.0 mi NNW 15.0 mph - N/A Rain Light Rain
5:13 PM 48.2 °F - 46.4 °F 93% 29.80 in 10.0 mi North 17.3 mph - N/A   Light Drizzle
5:33 PM 48.2 °F - 46.4 °F 93% 29.81 in 10.0 mi NNW 13.8 mph - N/A   Overcast
5:52 PM 48.2 °F - 46.4 °F 93% 29.81 in 10.0 mi NNW 16.1 mph 23.0 mph N/A   Overcast
6:13 PM 48.2 °F - 46.4 °F 93% 29.81 in 10.0 mi NNW 12.7 mph - N/A   Overcast
6:33 PM 48.2 °F - 46.4 °F 93% 29.81 in 10.0 mi NNW 12.7 mph - N/A   Light Drizzle
6:53 PM 48.2 °F - 46.4 °F 93% 29.81 in 10.0 mi NNW 12.7 mph 18.4 mph N/A   Overcast
7:13 PM 48.2 °F - 44.6 °F 87% 29.82 in 10.0 mi NNW 10.4 mph - N/A   Overcast
7:53 PM 46.4 °F 41.1 °F 44.6 °F 93% 29.82 in 7.0 mi North 11.5 mph - N/A   Drizzle
8:13 PM 46.4 °F 41.1 °F 46.4 °F 100% 29.82 in 10.0 mi North 11.5 mph 18.4 mph N/A   Overcast
8:33 PM 46.4 °F 41.1 °F 44.6 °F 93% 29.82 in 10.0 mi North 11.5 mph - N/A   Overcast
8:53 PM 46.4 °F 40.7 °F 44.6 °F 93% 29.83 in 10.0 mi North 12.7 mph - N/A   Overcast
9:13 PM 46.4 °F 40.7 °F 44.6 °F 93% 29.84 in 10.0 mi North 12.7 mph - N/A   Drizzle
9:33 PM 46.4 °F 40.4 °F 42.8 °F 87% 29.85 in 7.0 mi North 13.8 mph 18.4 mph N/A Rain Rain
9:53 PM 44.6 °F 37.8 °F 42.8 °F 93% 29.85 in 10.0 mi North 15.0 mph 19.6 mph N/A   Drizzle
10:13 PM 44.6 °F 38.4 °F 42.8 °F 93% 29.85 in 10.0 mi NNW 12.7 mph - N/A   Overcast
10:33 PM 44.6 °F 37.4 °F 42.8 °F 93% 29.85 in 10.0 mi NNW 16.1 mph - N/A   Overcast
10:53 PM 44.6 °F 36.9 °F 42.8 °F 93% 29.84 in 10.0 mi NNW 18.4 mph 23.0 mph N/A   Overcast
11:13 PM 44.6 °F 36.6 °F 42.8 °F 93% 29.82 in 10.0 mi NNW 19.6 mph 24.2 mph N/A   Overcast
11:33 PM 44.6 °F 38.1 °F 42.8 °F 93% 29.83 in 10.0 mi NNW 13.8 mph - N/A   Overcast
11:53 PM 42.8 °F 35.4 °F 41.0 °F 93% 29.83 in 10.0 mi North 15.0 mph 20.7 mph N/A   Overcast